TimeCDT,TemperatureF,Dew PointF,Humidity,Sea Level PressureIn,VisibilityMPH,Wind Direction,Wind SpeedMPH,Gust SpeedMPH,PrecipitationIn,Events,Conditions,WindDirDegrees,DateUTC
12:53 AM,41.0,26.1,55,30.07,10.0,WNW,3.5,-,N/A,,Overcast,300,2012-10-06 05:53:00
1:53 AM,42.1,26.1,53,30.07,10.0,NW,8.1,-,N/A,,Overcast,310,2012-10-06 06:53:00
2:53 AM,41.0,24.1,51,30.08,10.0,NW,6.9,-,N/A,,Mostly Cloudy,320,2012-10-06 07:53:00
3:53 AM,39.9,24.1,53,30.07,10.0,WNW,9.2,-,N/A,,Scattered Clouds,300,2012-10-06 08:53:00
4:53 AM,37.4,24.8,60,30.07,10.0,WNW,4.6,-,N/A,,Scattered Clouds,290,2012-10-06 09:53:00
5:53 AM,37.0,25.0,62,30.10,10.0,WNW,4.6,-,N/A,,Mostly Cloudy,290,2012-10-06 10:53:00
6:53 AM,37.9,25.0,60,30.12,10.0,WNW,5.8,-,N/A,,Overcast,290,2012-10-06 11:53:00
7:53 AM,39.0,26.1,60,30.13,10.0,NW,9.2,16.1,N/A,,Overcast,310,2012-10-06 12:53:00
8:53 AM,39.2,26.6,61,30.13,10.0,NW,6.9,-,N/A,,Overcast,310,2012-10-06 13:53:00
9:53 AM,41.0,26.1,55,30.16,10.0,NW,9.2,-,N/A,,Overcast,320,2012-10-06 14:53:00
10:53 AM,42.1,26.1,53,30.18,10.0,NW,9.2,18.4,N/A,,Overcast,310,2012-10-06 15:53:00
11:53 AM,43.0,26.1,51,30.19,10.0,WNW,10.4,-,N/A,,Overcast,300,2012-10-06 16:53:00
12:53 PM,45.0,26.1,48,30.19,10.0,NW,11.5,18.4,N/A,,Mostly Cloudy,320,2012-10-06 17:53:00
1:53 PM,45.0,25.0,46,30.17,10.0,NNW,13.8,24.2,N/A,,Overcast,330,2012-10-06 18:53:00
2:53 PM,45.0,25.0,46,30.18,10.0,NW,11.5,18.4,N/A,,Overcast,320,2012-10-06 19:53:00
3:53 PM,44.1,26.1,49,30.18,10.0,NW,8.1,-,N/A,,Overcast,320,2012-10-06 20:53:00
4:53 PM,43.0,26.1,51,30.19,10.0,NW,9.2,-,N/A,,Overcast,320,2012-10-06 21:53:00
5:53 PM,43.0,25.0,49,30.20,10.0,NW,3.5,-,N/A,,Overcast,310,2012-10-06 22:53:00
6:53 PM,42.1,25.0,51,30.21,10.0,Calm,Calm,-,N/A,,Overcast,0,2012-10-06 23:53:00
7:53 PM,42.1,26.1,53,30.22,10.0,WNW,4.6,-,N/A,,Overcast,290,2012-10-07 00:53:00
8:53 PM,42.1,26.1,53,30.22,10.0,WNW,3.5,-,N/A,,Mostly Cloudy,300,2012-10-07 01:53:00
9:53 PM,41.0,26.1,55,30.21,10.0,NW,3.5,-,N/A,,Overcast,310,2012-10-07 02:53:00
10:53 PM,41.0,26.1,55,30.22,10.0,NNW,4.6,-,N/A,,Overcast,330,2012-10-07 03:53:00
11:53 PM,41.0,26.6,57,30.19,10.0,NW,3.5,-,N/A,,Overcast,320,2012-10-07 04:53:00